Home > Weather > Truro > Past weeks

Flag for United Kingdom Weather for the Past 2 Weeks in Truro, England, United Kingdom

Now
41 °F

Passing clouds.


Feels Like: 31 °F
Forecast: 41 / 45 °F
Wind: 22 mph from West

Location: Culdrose

Current Time: Feb 10, 2016 at 3:09:39 AM

Latest Report: Feb 10, 2016 at 1:50 AM


Visibility: N/A

Pressure: 29.50 "Hg

Humidity: 66%

Dew point: 30 °F

Location of TruroLocation

Historic Weather in Truro — Graph

°F

Truro Temperature Yesterday

Maximum temperature yesterday: 46 °F (at 12:50 AM)
Minimum temperature yesterday: 39 °F (at 10:50 AM)
Average temperature yesterday: 42 °F

High & Low Weather Summary for the Past Weeks

 TemperatureHumidityPressure
High54 °F (Jan 26, 9:50 PM)100% (Jan 26, 9:50 AM)30.48 "Hg (Jan 26, 9:50 AM)
Low37 °F (Feb 7, 1:50 AM)54% (Feb 8, 11:50 AM)29.09 "Hg (Feb 6, 2:50 PM)
Average48 °F85%29.89 "Hg
* Reported Jan 26 12:50 AM — Feb 10 12:50 AM, Truro, Weather by CustomWeather, © 2016

Note: Actual official high and low records may vary slightly from our data, if they occured in-between our weather recording intervals... More about our weather records

Advertising

Truro Weather History for the Previous 24 Hours

 ConditionsComfort  
Time TempWeatherWind HumidityBarometerVisibility
12:50 AM
Wed, Feb 10
41 °FPassing clouds.18 mph61%29.50 "HgN/A
11:50 PM
Tue, Feb 9
43 °FPassing clouds.18 mph57%29.50 "HgN/A
10:50 PM43 °FPassing clouds.22 mph61%29.47 "HgN/A
9:50 PM43 °FPassing clouds.22 mph57%29.45 "HgN/A
8:50 PM43 °FPassing clouds.22 mph61%29.42 "HgN/A
7:50 PM43 °FPassing clouds.21 mph61%29.42 "HgN/A
6:50 PM41 °FPassing clouds.17 mph66%29.39 "HgN/A
5:50 PM41 °FScattered showers. Passing clouds.15 mph76%29.36 "HgN/A
4:50 PM41 °FScattered showers. Scattered clouds.23 mph70%29.33 "HgN/A
3:50 PM43 °FSprinkles. Scattered clouds.20 mph71%29.30 "HgN/A
2:50 PM39 °FScattered showers. Scattered clouds.18 mph87%29.30 "HgN/A
1:56 PM39 °FHail. Broken clouds.26 mph81%29.27 "Hg2 mi
1:50 PM45 °FScattered showers. Broken clouds.23 mph71%29.27 "HgN/A
12:50 PM43 °FBroken clouds.16 mph76%29.24 "HgN/A
11:50 AM39 °FSprinkles. Broken clouds.13 mph87%29.24 "HgN/A
10:50 AM39 °FScattered showers. Broken clouds.7 mph87%29.24 "HgN/A
9:50 AM43 °FBroken clouds.13 mph71%29.21 "HgN/A
8:50 AM43 °FScattered showers. Broken clouds.9 mph71%29.21 "HgN/A
7:50 AM41 °FSprinkles. Broken clouds.10 mph81%29.18 "HgN/A
6:50 AM43 °FPassing clouds.9 mph76%29.18 "HgN/A
5:50 AM43 °FSprinkles. Partly cloudy.8 mph81%29.21 "HgN/A
4:50 AM43 °FPassing clouds.7 mph81%29.21 "HgN/A
3:50 AM43 °FPartly cloudy.7 mph81%29.27 "HgN/A
Weather by CustomWeather, © 2016

See weather overviewHow to use our weather pages